Bookmark and Share
Track history (hours):
 

Marchicora

Last reported at 2014-Apr-13 18:22 UTC. Time now 2014-Apr-16 05:16 UTC.
Position N 38°43' W 009°52'.

Length 153 m; draft 10.1 m.

Type: Cargo ship. MMSI: 304653000.

NotesDate/timePositionNaut miles runAvg speedWind from/ knotsBaromVisibWave heightAir tempDewpointWater temp
2014-Apr-13 18:22N 38°43' W 009°52'1012.4
2014-Apr-13 17:32N 38°33' W 009°49'1212.5
2014-Apr-13 16:33N 38°21' W 009°46'1313.0
2014-Apr-13 15:33N 38°08' W 009°42'1312.9
2014-Apr-13 14:33N 37°56' W 009°38'1312.8
2014-Apr-13 13:33N 37°43' W 009°34'1312.8
2014-Apr-13 12:33N 37°31' W 009°31'1312.7
2014-Apr-13 11:31N 37°18' W 009°27'2512.7
2014-Apr-13 09:33N 36°54' W 009°20'1312.7
2014-Apr-13 08:33N 36°45' W 009°09'1312.7
2014-Apr-13 07:31N 36°41' W 008°53'1313.1
2014-Apr-13 06:33N 36°37' W 008°38'1413.4
2014-Apr-13 05:31N 36°33' W 008°22'1313.8
2014-Apr-13 04:33N 36°28' W 008°06'3113.4
2014-Apr-13 02:14N 36°18' W 007°29'9612.5
2014-Apr-12 18:33N 35°58' W 005°33'9 9.3
2014-Apr-12 17:33N 36°01' W 005°22'10 9.9
2014-Apr-12 16:33N 36°04' W 005°10'33612.4
2014-Apr-11 13:32N 37°04' E 001°41'1312.9
2014-Apr-11 12:33N 37°07' E 001°57'1312.9
2014-Apr-11 11:30N 37°09' E 002°13'1313.1
2014-Apr-11 10:33N 37°12' E 002°29'1313.2
2014-Apr-11 09:33N 37°14' E 002°45'1313.1
2014-Apr-11 08:33N 37°17' E 003°01'1211.8
2014-Apr-11 07:33N 37°19' E 003°16'1312.6
2014-Apr-11 06:33N 37°22' E 003°31'1313.4
2014-Apr-11 05:33N 37°24' E 003°48'1313.4
2014-Apr-11 04:33N 37°27' E 004°04'1413.6
2014-Apr-11 03:33N 37°30' E 004°21'1313.5
2014-Apr-11 02:33N 37°31' E 004°38'1413.5
2014-Apr-11 01:33N 37°33' E 004°55'1513.7
2014-Apr-11 00:28N 37°35' E 005°13'17913.6
2014-Apr-10 11:19N 37°58' E 008°58'21512.1
2014-Apr-09 17:32N 37°00' E 013°20'1212.3
2014-Apr-09 16:33N 36°54' E 013°33'1212.4
2014-Apr-09 15:33N 36°48' E 013°47'1312.7
2014-Apr-09 14:33N 36°42' E 014°00'1312.7
2014-Apr-09 13:33N 36°36' E 014°14'1212.5
2014-Apr-09 12:33N 36°30' E 014°28'1312.3
2014-Apr-09 11:32N 36°29' E 014°43'1212.5
2014-Apr-09 10:33N 36°29' E 014°59'1212.3
2014-Apr-09 09:33N 36°34' E 015°13'1212.0
2014-Apr-09 08:33N 36°45' E 015°20'1413.8
2014-Apr-09 07:33N 36°58' E 015°25'1310.6
2014-Apr-09 06:20N 37°10' E 015°19'  
2014-Apr-04 09:31N 36°11' E 020°08'1313.1
2014-Apr-04 08:33N 36°11' E 020°24'1313.3
2014-Apr-04 07:33N 36°10' E 020°40'1813.1
2014-Apr-04 06:08N 36°09' E 021°03'712.6
2014-Apr-04 05:33N 36°09' E 021°12'1512.6
2014-Apr-04 04:24N 36°07' E 021°30'3712.8
2014-Apr-04 01:29N 36°04' E 022°16'1212.7
2014-Apr-04 00:31N 36°04' E 022°31'1712.9
2014-Apr-03 23:14N 36°03' E 022°52'812.6
2014-Apr-03 22:33N 36°02' E 023°02'4012.5
2014-Apr-03 19:23N 36°25' E 023°43'1312.9
2014-Apr-03 18:23N 36°32' E 023°56'  

Dump ship's entire track history

sailing weather and tide predictions

Marchicora — V2OQ7 — position and weather